カタログに戻る

STARLINK-30767

運用中通信VLEO
NORAD 58126·PAYLOAD·🇺🇸 United States

打ち上げ Oct 22, 2023 から Cape Canaveral Space Force Station

Loading…

次のパス (今後24時間)

TLE

最新Source: CelesTrak SupGP

元期: Sep 14, 2026, 21:04 UTC

1 58126C 23162J   26257.87826389 -.00007711  00000+0 -27938-3 0  2575
2 58126  43.0005 140.8468 0001393 267.5435 275.5048 15.27572478    15

AllMySatでSTARLINK-30767をリアルタイム追跡

Download on the App Store